#timestamp,LO_Frequency,Hit,StdDev 
1515394815.6,286047000.3,N
1515394835.5,286047002.3,N
1515394855.3,286047004.3,N
1515394875.1,286047001.4,N
1515394895.9,286047004.4,N
1515394915.7,286047001.3,N
1515394935.6,286047003.2,N
1515394955.4,286047004.8,N
1515394975.2,286047007.4,N
1515394995.1,286047006.0,N
1515394996.0,286047006.0,N
1515395015.8,286047003.3,N
1515395035.6,286047001.3,N
1515395055.5,286047002.3,N
1515395075.3,286047002.1,N
1515395095.2,286047000.8,N
1515395115.9,286046998.5,N
1515395135.7,286046999.4,N
1515395155.6,286046996.6,N
1515395175.4,286046996.5,N
1515395195.2,286046999.0,N
1515395215.1,286046997.2,N
1515395216.0,286046997.2,N
1515395235.8,286046997.7,N
1515395255.7,286046997.0,N
1515395275.5,286046998.0,N
1515395295.3,286046994.9,N
1515395315.2,286046995.6,N
1515395335.0,286046995.1,N
1515395335.9,286046995.1,N
1515395355.8,286046995.6,N
1515395375.6,286046997.3,N
1515395395.4,286046997.9,N
1515395415.3,286046997.5,N
1515395435.1,286046999.2,N
1515395455.9,286046998.3,N
1515395475.7,286046999.4,N
1515395495.5,286046997.5,N
1515395515.4,286046995.0,N
1515395535.2,286046995.0,N
1515395555.0,286046995.0,N
1515395555.9,286046995.0,N
1515395575.8,286046997.7,N
1515395595.6,286046997.1,N
1515395615.5,286046999.0,N
1515395635.3,286047001.2,N
1515395655.1,286046998.7,N
1515395675.9,286046998.7,N
1515395695.7,286046996.5,N
1515395715.5,286047001.2,N
1515395735.4,286046999.0,N
1515395755.2,286046998.3,N
1515395775.1,286046999.1,N
1515395776.0,286046999.1,N
1515395795.8,286046999.4,N
1515395815.6,286046996.5,N
1515395835.5,286047001.0,N
1515395855.3,286047002.2,N
1515395875.1,286047000.3,N
1515395895.9,286046999.8,N
1515395915.7,286047000.3,N
1515395935.6,286047003.8,N
1515395955.4,286047005.8,N
1515395975.2,286047003.1,N
1515395995.1,286047003.0,N
1515395996.0,286047003.0,N
1515396015.8,286047003.6,N
1515396035.7,286047005.8,N
1515396055.5,286047005.0,N
1515396075.3,286047005.4,N
1515396095.2,286047004.5,N
1515396115.0,286047007.1,N
1515396115.9,286047007.1,N
1515396135.7,286047005.2,N
1515396155.6,286047004.9,N
1515396175.4,286047003.4,N
1515396195.3,286047003.3,N
1515396215.1,286047005.8,N
1515396235.8,286047007.4,N
1515396255.7,286047007.4,N
1515396275.5,286047008.4,N
1515396295.4,286047006.1,N
1515396315.2,286047006.2,N
1515396335.0,286047010.2,Y
1515396335.9,286047010.2,P
1515396355.8,286047005.1,N
1515396375.6,286047005.2,N
1515396395.5,286047004.5,N
1515396415.3,286047003.8,N
1515396435.1,286047004.3,N
1515396455.9,286047001.4,N
1515396475.7,286047001.9,N
1515396495.5,286047001.8,N
1515396515.4,286047001.5,N
1515396535.2,286047001.6,N
1515396555.1,286047001.1,N
1515396556.0,286047001.1,N
1515396575.8,286046998.4,N
1515396595.6,286046996.6,N
1515396615.5,286046995.1,N
1515396635.3,286046994.0,N
1515396655.1,286046994.9,N
1515396675.9,286046997.5,N
1515396695.7,286046997.3,N
1515396715.6,286046997.6,N
1515396735.4,286046995.2,N
1515396755.2,286046997.6,N
1515396775.1,286046996.9,N
1515396776.0,286046996.9,N
1515396795.8,286046996.6,N
1515396815.7,286046998.8,N
1515396835.5,286047001.1,N
1515396855.3,286047000.5,N
1515396875.2,286047000.9,N
1515396895.9,286046998.5,N
1515396915.7,286046997.2,N
1515396935.6,286046996.6,N
1515396955.4,286046999.4,N
1515396975.3,286046999.2,N
1515396995.1,286046996.9,N
1515396996.0,286046996.9,N
1515397015.8,286046999.2,N
1515397035.7,286047001.2,N
1515397055.5,286046998.4,N
1515397075.3,286046999.1,N
1515397095.2,286046997.0,N
1515397115.0,286046997.1,N
1515397115.9,286046997.1,N
1515397135.8,286046996.8,N
1515397155.6,286046996.7,N
1515397175.4,286046999.1,N
1515397195.3,286047000.4,N
1515397215.1,286046998.5,N
1515397235.9,286046997.4,N
1515397255.7,286046997.9,N
1515397275.5,286046997.8,N
1515397295.4,286046995.4,Y
1515397315.2,286046995.1,P
1515397335.0,286046998.0,N
1515397335.9,286046998.0,N
1515397355.8,286046995.0,Y
1515397375.6,286047000.3,P
1515397395.5,286046999.9,N
1515397415.3,286047000.7,N
1515397435.1,286047000.5,N
1515397455.9,286047000.8,N
1515397475.7,286047001.1,N
1515397495.6,286046998.8,N
1515397515.4,286046996.5,N
1515397535.2,286046999.0,N
1515397555.1,286046999.3,N
1515397556.0,286046999.3,N
1515397575.8,286047000.4,N
1515397595.6,286046998.4,N
1515397615.5,286046999.0,N
1515397635.3,286046996.5,N
1515397655.2,286046997.3,N
1515397675.9,286047000.9,N
1515397695.7,286046999.9,N
1515397715.6,286047001.8,N
1515397735.4,286047003.4,N
1515397755.3,286047005.6,Y
1515397775.1,286047003.1,P
1515397776.0,286047003.1,N
1515397795.8,286047003.2,N
1515397815.7,286047002.9,N
1515397835.5,286047003.8,N
1515397855.3,286047003.2,N
1515397875.2,286047001.7,N
1515397895.0,286047001.9,N
1515397895.9,286047001.9,N
1515397915.8,286047004.4,Y
1515397935.6,286046998.2,P
1515397955.4,286046996.7,N
1515397975.3,286046998.0,N
1515397995.1,286046995.7,N
1515398015.9,286046995.7,N
1515398035.7,286046995.6,N
1515398055.5,286046998.0,N
1515398075.4,286046998.0,N
1515398095.2,286046997.7,N
1515398115.0,286046997.8,N
1515398115.9,286046997.8,N
1515398135.8,286046997.7,N
1515398155.6,286046996.7,N
1515398175.5,286046997.0,N
1515398195.3,286046999.0,N
1515398215.1,286046998.9,N
1515398235.9,286046997.2,N
1515398255.7,286046997.0,N
1515398275.5,286046998.9,N
1515398295.4,286047000.4,N
1515398315.2,286046998.4,N
1515398335.1,286046998.9,N
1515398336.0,286046998.9,N
1515398355.8,286046999.3,N
1515398375.6,286046997.2,N
1515398395.5,286046998.3,N
